Everett, WA
on Saturday, November 17, 2012

Saturday
Previous Day Next Day
Daily Summary
 ActualAverageRecord
Temperature
Mean Temperature °F °F  
Max Temperature 55°F 49°F 66°F (1965)
Min Temperature 42°F 37°F 19°F (1955)
Degree Days
Heating Degree Days 16    
Moisture
Dew Point 40°F   
Average Humidity 78    
Maximum Humidity 89    
Minimum Humidity 55    
Precipitation
Precipitation 0.23 in in in ()
Wind
Wind Speed 12 mph   
Max Wind Speed 23 mph   
Max Gust Speed 28 mph   
Visibility 9 miles   
Events Rain   
Averages and records for this station are not official NWS values.
Key: T is trace of precipitation, MM is missing value
Source: NWS Daily Summary
Seasonal Weather Averages
Time(PST)TemperatureDew PointHumidity Pressure Visibility Wind DirectionWind SpeedGust SpeedPrecipitationEvents Conditions
12:53 AM 46.9°F 42.1°F 83% 29.68 in 8.0 miles ESE 11.5 mph 18.4 mph 0.03 in Rain Light Rain
1:53 AM 46.9°F 43.0°F 86% 29.66 in 5.0 miles SE 5.8 mph 16.1 mph 0.04 in Rain Rain
2:53 AM 46.9°F 42.1°F 83% 29.62 in 10.0 miles ESE 12.7 mph - 0.02 in Rain Light Rain
3:53 AM 46.9°F 42.1°F 83% 29.60 in 8.0 miles Variable 5.8 mph - 0.01 in Rain Light Rain
4:53 AM 48.9°F 39.9°F 71% 29.58 in 10.0 miles Variable 6.9 mph 16.1 mph 0.00 in   Overcast
5:53 AM 50.0°F 39.9°F 68% 29.55 in 10.0 miles Variable 5.8 mph - 0.00 in   Overcast
6:53 AM 50.0°F 41.0°F 71% 29.55 in 10.0 miles SSE 10.4 mph - N/A   Overcast
7:53 AM 53.1°F 39.0°F 59% 29.53 in 10.0 miles SSE 11.5 mph 18.4 mph 0.00 in   Scattered Clouds
8:53 AM 53.1°F 39.0°F 59% 29.50 in 10.0 miles SE 9.2 mph - N/A   Scattered Clouds
9:53 AM 53.1°F 39.0°F 59% 29.49 in 10.0 miles SE 9.2 mph 17.3 mph N/A   Mostly Cloudy
10:53 AM 55.0°F 39.0°F 55% 29.48 in 10.0 miles SSE 18.4 mph 26.5 mph N/A   Overcast
11:53 AM 55.0°F 39.0°F 55% 29.46 in 10.0 miles SSE 10.4 mph 20.7 mph 0.00 in   Overcast
12:15 PM 51.8°F 42.8°F 71% 29.48 in 10.0 miles SSW 15.0 mph - N/A   Overcast
12:53 PM 48.9°F 45.0°F 86% 29.50 in 10.0 miles South 16.1 mph - 0.00 in   Overcast
1:53 PM 48.0°F 41.0°F 77% 29.53 in 10.0 miles South 20.7 mph - 0.02 in Rain Light Rain
2:49 PM 44.6°F 41.0°F 87% 29.54 in 3.0 miles South 23.0 mph 27.6 mph 0.05 in Rain Light Rain
2:53 PM 45.0°F 41.0°F 86% 29.55 in 3.0 miles South 20.7 mph 27.6 mph 0.06 in Rain Light Rain
2:55 PM 44.6°F 41.0°F 87% 29.54 in 2.5 miles South 20.7 mph - 0.00 in Rain Light Rain
3:53 PM 44.1°F 41.0°F 89% 29.58 in 2.5 miles South 15.0 mph 24.2 mph 0.04 in Rain Light Rain
3:58 PM 44.6°F 41.0°F 87% 29.57 in 8.0 miles South 15.0 mph 24.2 mph 0.00 in Rain Light Rain
4:05 PM 44.6°F 41.0°F 87% 29.58 in 10.0 miles South 16.1 mph 21.9 mph 0.00 in Rain Light Rain
4:53 PM 44.1°F 39.9°F 85% 29.60 in 10.0 miles South 20.7 mph 26.5 mph 0.01 in   Mostly Cloudy
5:53 PM 44.1°F 39.9°F 85% 29.62 in 10.0 miles South 17.3 mph 25.3 mph N/A   Mostly Cloudy
6:00 PM 42.8°F 39.2°F 87% 29.62 in 10.0 miles SSE 17.3 mph 25.3 mph N/A   Overcast
6:53 PM 43.0°F 39.0°F 86% 29.63 in 10.0 miles SSE 11.5 mph 19.6 mph N/A   Overcast
7:53 PM 43.0°F 39.0°F 86% 29.64 in 10.0 miles SSE 12.7 mph - N/A   Overcast
8:00 PM 44.6°F 39.2°F 81% 29.64 in 10.0 miles SSE 12.7 mph - N/A   Clear
8:53 PM 44.1°F 37.9°F 79% 29.65 in 10.0 miles SSE 15.0 mph 25.3 mph N/A   Overcast
9:09 PM 44.6°F 39.2°F 81% 29.65 in 10.0 miles South 11.5 mph - 0.00 in Rain Light Rain
9:53 PM 44.1°F 39.0°F 82% 29.66 in 10.0 miles SSE 11.5 mph - 0.00 in   Overcast
10:53 PM 44.1°F 39.0°F 82% 29.68 in 10.0 miles South 16.1 mph - N/A   Overcast
11:53 PM 44.1°F 37.9°F 79% 29.70 in 10.0 miles South 13.8 mph - N/A   Mostly Cloudy
Moon Phase
Nov. 17 Nov. 20 Nov. 28 Dec. 06 Dec. 13
Sunrise:07:19 AM (PST) Moon Rise:11:07 AM (PST)11/17
Sunset:04:28 PM (PST) Moon Set:08:46 PM (PST)11/17

Copyright © 2014 The Weather Underground, Inc.